Location: Ferchesar
(52.6477°N, 12.4298°E)
Time: 17:20:48
(UTC+01:00)

Envisat - Pass Details

Date: 13 October 2022
Orbit: 763 x 765 km, 98.2° (Epoch: 30 November)

Event Time Altitude Azimuth Distance (km) Brightness Sun altitude
Rises 06:22:00 0° 11° (N) 3,247 6.4 -11.4°
Reaches altitude 10° 06:24:22 10° 6° (N) 2,316 5.6 -11.0°
Maximum altitude 06:29:17 49° 293° (WNW) 981 3.2 -10.3°
Drops below altitude 10° 06:34:09 10° 219° (SW) 2,300 5.1 -9.6°
Sets 06:36:30 0° 214° (SW) 3,221 5.9 -9.2°
